Location: *
(46.4833°N, 7.6667°E)
Time: 11:36:03
(UTC+00:00)

STARLINK-1055 - Pass Details

Date: 27 February 2020
Orbit: 549 x 550 km, 53.0° (Epoch: 09 April)

Event Time Altitude Azimuth Distance (km) Brightness Sun altitude
Rises 18:40:25 0° 243° (WSW) 2,709 8.2 -16.1°
Reaches altitude 10° 18:42:38 10° 245° (WSW) 1,819 7.2 -16.4°
Maximum altitude 18:46:46 77° 332° (NNW) 568 3.7 -17.1°
Enters shadow 18:48:47 29° 54° (NE) 1,016 4.6 -17.5°
